Location: Buffign�court
(47.8126°N, 6.0176°E)
Time: 20:26:52
(UTC+00:00)

Cosmos 2278 Rocket - Pass Details

Date: 16 June 2021
Orbit: 840 x 846 km, 71.0° (Epoch: 23 July)

Event Time Altitude Azimuth Distance (km) Brightness Sun altitude
Rises 22:06:16 0° 334° (NNW) 3,412 7.2 -16.0°
Reaches altitude 10° 22:08:48 10° 340° (NNW) 2,474 6.0 -16.1°
Maximum altitude 22:14:20 52° 56° (ENE) 1,041 2.7 -16.4°
Enters shadow 22:18:05 20° 126° (SE) 1,842 3.5 -16.6°
